NOAA 19 (33591 NORAD) Tracking and Keplerian Element Data

This shows tracking and keplerian element data for the satellite.

Feedback or suggestion? Click here.




ElementValue
Catalog33591
NameNOAA 19
Epoch Orbit52570
Epoch Day111.59794546
Epoch Year2019
RAAN101.3239
Inclination99.1779
Eccentricity0.001398
Argument of Perigee177.2943
Mean Anonmoly182.8306
Mean Motion14.12345601
Decay Rate3.5E-07
L11 33591U 09005A 19111.59794546 .00000035 00000-0 44388-4 0 9996
L22 33591 99.1779 101.3239 0013980 177.2943 182.8306 14.12345601525702

Live tracking and technical data element details for NOAA 19 (NORAD 33591). NOAA 19 can be tracked NOW for your location showing map with azimuth and elevation plus other details from your city location.

Track the satellite on the map from your city or location and see movement details for azimuth, elevation, latitude, longitude, range, height, and movement on the map or in text.







IsCatalogInMostPopularTable: catalog: 33591, numindb: 510
Update: records affected: 1



GetName: 33591 NOAA 19

Hit Count: updated at: Tue, 23 Apr 2019 03:02:26 GMT